Earlysville, VA

7:33 AM EST on February 06, 2016 (GMT -0500)
Charlottesville-Albemarle

Weather History for KCHO - December, 2012

Change the Weather History Date:

Thursday, December 6, 2012

  Actual Average Record
Temperature  
Mean Temperature 37 °F 40 °F  
Max Temperature 45 °F 49 °F 76 °F (1998)
Min Temperature 28 °F 31 °F 14 °F (1901)
Degree Days  
Heating Degree Days 28 25  
Month to date heating degree days 94 145  
Since 1 July heating degree days 1003 1036  
Cooling Degree Days 0 0  
Month to date cooling degree days 0 0  
Year to date cooling degree days 1604 1035  
Moisture  
Dew Point 24 °F    
Average Humidity 62    
Maximum Humidity 78    
Minimum Humidity 45    
Precipitation  
Precipitation 0.00 in 0.12 in 0.70 in (2013)
Month to date precipitation T 0.74  
Year to date precipitation 33.73 40.30  
Sea Level Pressure  
Sea Level Pressure 30.30 in    
Wind  
Wind Speed 3 mph (ENE)    
Max Wind Speed 9 mph    
Max Gust Speed 10 mph    
Visibility 10 miles    
Events      
T = Trace of Precipitation, MM = Missing Value Source: NWS Daily Summary

Daily Weather History Graph

Daily Weather History Graph

Search for Another Location

Airport or City:

Trip Planner

Search our weather history database for the weather conditions in past years. The results will help you decide how hot, cold, wet, or windy it might be!

Date:

Astronomy

Dec. 06, 2012 Rise Set
Actual Time 7:16 AM EST 4:53 PM EST
Civil Twilight 6:47 AM EST 5:23 PM EST
Nautical Twilight 6:14 AM EST 5:55 PM EST
Astronomical Twilight 5:42 AM EST 6:27 PM EST
Moon No Moon Rise 12:13 PM EST
Length of Visible Light 10h 35m
Length of Day
9h 37m
Waning Gibbous, 49% of the Moon is Illuminated
Dec 6
Waning Gibbous
Dec 13
New
Dec 20
First Quarter
Dec 28
Full
Jan 4
Last Quarter

Hourly Weather History & Observations

Time (EST) Temp. Windchill Dew Point Humidity Pressure Visibility Wind Dir Wind Speed Gust Speed Precip Events Conditions
12:53 AM 36.0 °F 31.1 °F 26.1 °F 67% 30.27 in 10.0 mi NE 5.8 mph - 0.00 in   Clear
1:53 AM 35.1 °F 32.2 °F 25.0 °F 67% 30.28 in 9.0 mi NNE 3.5 mph - 0.00 in   Clear
2:53 AM 32.0 °F 26.4 °F 24.1 °F 73% 30.29 in 10.0 mi NE 5.8 mph - 0.00 in   Clear
3:53 AM 30.0 °F 25.2 °F 23.0 °F 75% 30.29 in 10.0 mi NNE 4.6 mph - 0.00 in   Clear
4:53 AM 30.9 °F - 21.9 °F 69% 30.31 in 10.0 mi Calm Calm - N/A   Clear
5:53 AM 30.0 °F 26.5 °F 21.0 °F 69% 30.33 in 10.0 mi NE 3.5 mph - N/A   Clear
6:53 AM 28.9 °F - 21.0 °F 72% 30.34 in 10.0 mi Calm Calm - N/A   Clear
7:53 AM 28.9 °F - 23.0 °F 78% 30.37 in 10.0 mi Calm Calm - N/A   Clear
8:53 AM 34.0 °F - 24.1 °F 67% 30.38 in 10.0 mi Calm Calm - N/A   Clear
9:53 AM 36.0 °F 31.1 °F 23.0 °F 59% 30.38 in 10.0 mi East 5.8 mph - N/A   Clear
10:53 AM 39.0 °F 35.7 °F 21.9 °F 50% 30.38 in 10.0 mi Variable 4.6 mph - 0.00 in   Clear
11:53 AM 39.9 °F 37.8 °F 21.9 °F 49% 30.34 in 10.0 mi NE 3.5 mph - N/A   Clear
12:53 PM 41.0 °F - 23.0 °F 49% 30.30 in 10.0 mi Calm Calm - N/A   Clear
1:53 PM 43.0 °F - 23.0 °F 45% 30.28 in 10.0 mi Calm Calm - N/A   Clear
2:53 PM 45.0 °F - 24.1 °F 44% 30.27 in 10.0 mi Calm Calm - N/A   Clear
3:53 PM 43.0 °F 38.8 °F 25.0 °F 49% 30.26 in 10.0 mi South 6.9 mph - N/A   Clear
4:53 PM 39.0 °F 34.0 °F 24.1 °F 55% 30.26 in 10.0 mi South 6.9 mph - N/A   Clear
5:53 PM 39.0 °F 32.8 °F 25.0 °F 57% 30.26 in 10.0 mi South 9.2 mph - N/A   Clear
6:53 PM 39.9 °F - 25.0 °F 55% 30.27 in 10.0 mi Calm Calm - N/A   Clear
8:53 PM 36.0 °F - 26.1 °F 67% 30.25 in 10.0 mi Calm Calm - N/A   Clear
9:53 PM 34.0 °F - 26.1 °F 73% 30.25 in 10.0 mi Calm Calm - N/A   Scattered Clouds
10:53 PM 36.0 °F - 28.0 °F 73% 30.24 in 10.0 mi Calm Calm - N/A   Overcast
11:53 PM 36.0 °F - 28.0 °F 73% 30.22 in 10.0 mi Calm Calm - N/A   Mostly Cloudy